• MPC Preparation (Info)

  • MPEC 2016-F82 : 2016 FR12

    The following Minor Planet Electronic Circular may be linked-to from your own Web pages, but must not otherwise be redistributed electronically.

    A form allowing access to any MPEC is at the bottom of this page.


    Read MPEC 2016-F81 Read MPEC 2016-F83


    M.P.E.C. 2016-F82                                Issued 2016 Mar. 31, 16:27 UT
    
         The Minor Planet Electronic Circulars contain information on unusual
             minor planets and routine data on comets.  They are published
        on behalf of Division F of the International Astronomical Union by the
              Minor Planet Center, Smithsonian Astrophysical Observatory,
                              Cambridge, MA 02138, U.S.A.
    
                 Prepared using the Tamkin Foundation Computer Network
    
                                  MPC@CFA.HARVARD.EDU
                URL https://www.minorplanetcenter.net/    ISSN 1523-6714
    
                                       2016 FR12
    
    Observations:
         K16F12R* C2016 03 28.35453 13 01 24.68 -00 54 39.7          20.5 VqEF082G96
         K16F12R  C2016 03 28.36292 13 01 21.33 -00 55 02.8          21.1 VqEF082G96
         K16F12R  C2016 03 28.37131 13 01 17.97 -00 55 26.2          20.7 VqEF082G96
         K16F12R  C2016 03 28.37969 13 01 14.64 -00 55 49.5          21.0 VqEF082G96
         K16F12R  C2016 03 28.40371713 01 04.86 -00 56 58.7          21.5 VtEF082H01
         K16F12R  C2016 03 28.40721613 01 03.48 -00 57 08.5          21.6 VtEF082H01
         K16F12R  C2016 03 28.41447 13 01 00.78 -00 57 27.3          20.8 VqEF082G96
         K16F12R  C2016 03 28.41574513 01 00.11 -00 57 32.8          20.8 VtEF082H01
         K16F12R  C2016 03 28.41646 13 00 59.98 -00 57 32.7          20.8 VqEF082G96
         K16F12R  C2016 03 28.42696613 00 55.68 -00 58 03.9          21.0 VtEF082H01
         K16F12R mC2016 03 28.43736 13 00 51.83 -00 58 31.8                oEF082691
         K16F12R mC2016 03 28.44539 13 00 48.61 -00 58 54.2                oEF082691
         K16F12R  C2016 03 29.38741 12 54 52.30 -01 43 09.8          21.1 RoEF082926
         K16F12R  C2016 03 29.39186 12 54 50.53 -01 43 22.1          20.7 RoEF082926
         K16F12R  C2016 03 29.39631 12 54 48.72 -01 43 34.6          21.0 RoEF082926
         K16F12R  C2016 03 31.31545 12 42 32.84 -03 14 27.6          20.5 VqEF082G96
         K16F12R  C2016 03 31.31727 12 42 32.05 -03 14 33.4          20.6 VqEF082G96
         K16F12R  C2016 03 31.31910 12 42 31.35 -03 14 38.6          20.8 VqEF082G96
    
    Observer details:
    691 Steward Observatory, Kitt Peak.  Observer J. V. Scotti.  0.9-m f/3
        reflector + CCD.
    926 Tenagra II Observatory.  Observers M. Schwartz, P. R. Holvorcem.  Measurer
        M. Schwartz.  0.81-m f/7 Ritchey-Chretien + CCD.
    G96 Mt. Lemmon Survey.  Observers R. A. Kowalski, G. J. Leonard.  Measurers
        E. J. Christensen, D. C. Fuls, A. R. Gibbs, A. D. Grauer, J. A. Johnson,
        R. A. Kowalski, S. M. Larson, G. J. Leonard, R. G. Matheny, R. L. Seaman,
        F. C. Shelly.  1.5-m reflector + CCD.
    H01 Magdalena Ridge Observatory, Socorro.  Observers W. H. Ryan, E. V. Ryan.
        Measurer W. H. Ryan.  2.4-m f/8.9 reflector + CCD.
    
    Orbital elements:
    2016 FR12                                                Earth MOID = 0.1368 AU
    Epoch 2016 Jan. 13.0 TT = JDT 2457400.5                 MPC
    M  92.10111              (2000.0)            P               Q
    n   1.01862670     Peri.    5.24768     +0.95803528     -0.28328995
    a   0.9782714      Node    11.49851     +0.25436348     +0.76976990
    e   0.1626365      Incl.   12.68183     +0.13216511     +0.57201496
    P   0.97           H   24.6           G   0.15           U   8
    Residuals in seconds of arc
    160328 G96  0.3+  0.3-    160328 G96  0.3-  0.2+    160329 926  0.3-  0.1+
    160328 G96  0.2+  0.2+    160328 H01  0.4-  0.3-    160329 926  0.0   0.4+
    160328 G96  0.0   0.3+    160328 G96  0.5-  0.4+    160329 926  0.2-  0.5+
    160328 G96  0.2+  0.5+    160328 H01  0.4-  0.0     160331 G96  0.3+  0.3+
    160328 H01  0.6-  0.1+    160328 691  0.9+  0.5-    160331 G96  0.4-  0.3-
    160328 H01  0.5-  0.1+    160328 691  0.2+  0.4-    160331 G96  0.3+  0.3-
    
    Ephemeris:
    2016 FR12                a,e,i = 0.98, 0.16, 13                  q = 0.8192
    Date    TT    R. A. (2000) Decl.     Delta      r     Elong.  Phase     V
    2016 03 01    14 49 23.8 +13 26 14   0.2067  1.1104   120.6    50.2    23.3
    ...
    2016 03 16    14 07 36.3 +07 26 17   0.1595  1.1273   143.8    31.4    22.2
    ...
    2016 03 24    13 27 40.0 +02 22 36   0.1429  1.1330   161.0    16.7    21.5
    ...
    2016 03 30    12 50 59.7 -02 11 29   0.1374  1.1357   175.7     3.8    20.9
    2016 03 31    12 44 35.0 -02 58 51   0.1371  1.1361   178.1     1.7    20.8
    2016 04 01    12 38 08.5 -03 46 13   0.1371  1.1364   178.7     1.1    20.7
    ...
    2016 04 07    12 00 10.5 -08 19 56   0.1410  1.1373   164.1    14.0    21.4
    ...
    2016 04 15    11 16 50.1 -13 21 45   0.1560  1.1365   146.3    29.3    22.1
    ...
    2016 04 30    10 28 33.2 -19 19 48   0.2019  1.1286   122.4    48.9    23.2
    
    A. U. Tomatic                (C) Copyright 2016 MPC           M.P.E.C. 2016-F82
    

    Read MPEC 2016-F81 Read MPEC 2016-F83


    MPEC number:

    Enter an MPEC number in one of the following forms:

    • 1997-B01 (the full form)
    • J97B01 (the packed version of the full form)
    • B01 (the abbreviated form)